TimePST,TemperatureF,Dew PointF,Humidity,Sea Level PressureIn,VisibilityMPH,Wind Direction,Wind SpeedMPH,Gust SpeedMPH,PrecipitationIn,Events,Conditions,WindDirDegrees,DateUTC
12:56 AM,43.0,35.1,74,29.98,10.0,SSW,5.8,-,N/A,,Clear,210,2012-12-07 08:56:00
1:56 AM,42.1,36.0,79,29.99,10.0,SW,5.8,-,N/A,,Clear,220,2012-12-07 09:56:00
2:56 AM,41.0,35.1,79,29.99,10.0,SSW,5.8,-,N/A,,Clear,200,2012-12-07 10:56:00
3:56 AM,37.9,33.1,83,29.99,10.0,South,4.6,-,N/A,,Clear,170,2012-12-07 11:56:00
4:56 AM,35.1,30.0,82,30.01,10.0,West,3.5,-,N/A,,Clear,280,2012-12-07 12:56:00
5:56 AM,34.0,28.0,79,30.04,10.0,Calm,Calm,-,N/A,,Clear,0,2012-12-07 13:56:00
6:56 AM,39.9,32.0,73,30.05,10.0,South,8.1,-,N/A,,Clear,190,2012-12-07 14:56:00
7:56 AM,46.0,33.1,61,30.06,10.0,South,5.8,-,N/A,,Clear,190,2012-12-07 15:56:00
8:56 AM,52.0,34.0,50,30.06,10.0,South,3.5,-,N/A,,Clear,180,2012-12-07 16:56:00
9:56 AM,59.0,34.0,39,30.07,10.0,Calm,Calm,-,N/A,,Clear,0,2012-12-07 17:56:00
10:56 AM,63.0,32.0,31,30.05,10.0,West,3.5,-,N/A,,Clear,280,2012-12-07 18:56:00
11:56 AM,66.0,30.9,27,30.02,10.0,Variable,3.5,-,N/A,,Clear,0,2012-12-07 19:56:00
12:56 PM,66.9,30.9,26,30.01,10.0,Variable,4.6,-,N/A,,Clear,0,2012-12-07 20:56:00
1:56 PM,68.0,28.0,22,29.98,10.0,Calm,Calm,-,N/A,,Clear,0,2012-12-07 21:56:00
2:56 PM,68.0,27.0,21,29.97,10.0,Calm,Calm,-,N/A,,Clear,0,2012-12-07 22:56:00
3:56 PM,66.9,28.0,23,29.97,10.0,ENE,6.9,-,N/A,,Clear,70,2012-12-07 23:56:00
4:56 PM,59.0,26.1,28,30.00,10.0,ENE,5.8,-,N/A,,Clear,70,2012-12-08 00:56:00
5:56 PM,52.0,24.1,34,30.02,10.0,South,8.1,-,N/A,,Clear,190,2012-12-08 01:56:00
6:56 PM,51.1,24.1,35,30.02,10.0,South,9.2,-,N/A,,Clear,180,2012-12-08 02:56:00
7:56 PM,48.9,25.0,39,30.02,10.0,SSW,5.8,-,N/A,,Clear,200,2012-12-08 03:56:00
8:56 PM,46.0,24.1,42,30.03,10.0,SSW,4.6,-,N/A,,Clear,210,2012-12-08 04:56:00
9:56 PM,44.1,26.1,49,30.02,10.0,Calm,Calm,-,N/A,,Clear,0,2012-12-08 05:56:00
10:56 PM,42.1,26.1,53,30.02,10.0,SSW,6.9,-,N/A,,Clear,210,2012-12-08 06:56:00
11:56 PM,39.0,24.1,55,30.01,10.0,SSW,4.6,-,N/A,,Clear,200,2012-12-08 07:56:00